Rolla, ND

12:28 AM CDT on May 28, 2017 (GMT -0500)
Rolla

Weather History for K06D - October, 2012

Change the Weather History Date:

Tuesday, October 16, 2012

  Actual Average (KRUG) Record (KRUG)
Temperature  
Mean Temperature 48 °F -  
Max Temperature 64 °F 54 °F 82 °F (1961)
Min Temperature 32 °F 31 °F 13 °F (1992)
Degree Days  
Heating Degree Days 17    
Moisture  
Dew Point 42 °F    
Average Humidity 74    
Maximum Humidity 100    
Minimum Humidity 42    
Precipitation  
Precipitation 0.03 in - - ()
Sea Level Pressure  
Sea Level Pressure 29.42 in    
Wind  
Wind Speed 9 mph (SSW)    
Max Wind Speed 14 mph    
Max Gust Speed 17 mph    
Visibility 10 miles    
Events Rain    
Averages and records for this station are not official NWS values.
T = Trace of Precipitation, MM = Missing Value Source: NWS Daily Summary

Daily Weather History Graph

Daily Weather History Graph

Search for Another Location

Airport or City:

Trip Planner

Search our weather history database for the weather conditions in past years. The results will help you decide how hot, cold, wet, or windy it might be!

Date:

Astronomy

Oct. 16, 2012 Rise Set
Actual Time 8:01 AM CDT 6:45 PM CDT
Civil Twilight 7:29 AM CDT 7:17 PM CDT
Nautical Twilight 6:52 AM CDT 7:54 PM CDT
Astronomical Twilight 6:16 AM CDT 8:30 PM CDT
Moon 9:37 AM CDT (10/16) 7:18 PM CDT (10/16)
Length of Visible Light 11h 48m
Length of Day
10h 44m
New Moon, 2% of the Moon is Illuminated
Oct 16
New Moon
Oct 21
First Quarter
Oct 29
Full
Nov 6
Last Quarter
Nov 13
New

Hourly Weather History & Observations

Time (CDT) Temp. Windchill Dew Point Humidity Pressure Visibility Wind Dir Wind Speed Gust Speed Precip Events Conditions
12:15 AM 53.6 °F - 41.0 °F 62% 29.58 in 10.0 mi NNW 13.8 mph - N/A   Clear
12:35 AM 51.8 °F - 41.0 °F 67% 29.58 in 10.0 mi NW 10.4 mph - N/A   Clear
12:55 AM 48.2 °F - 41.0 °F 76% 29.57 in 10.0 mi NNW 8.1 mph - N/A   Clear
1:15 AM 48.2 °F - 41.0 °F 76% 29.58 in 10.0 mi NNW 10.4 mph - N/A   Clear
1:35 AM 48.2 °F - 41.0 °F 76% 29.58 in 10.0 mi NW 6.9 mph - N/A   Clear
1:55 AM 48.2 °F - 41.0 °F 76% 29.58 in 10.0 mi NW 5.8 mph - N/A   Clear
2:15 AM 46.4 °F 41.9 °F 39.2 °F 76% 29.58 in 10.0 mi NW 9.2 mph - N/A   Clear
2:35 AM 46.4 °F 41.9 °F 41.0 °F 81% 29.58 in 10.0 mi NW 9.2 mph - N/A   Clear
3:15 AM 44.6 °F 40.7 °F 39.2 °F 81% 29.57 in 10.0 mi NNW 6.9 mph - N/A   Clear
3:35 AM 44.6 °F 40.2 °F 41.0 °F 87% 29.56 in 10.0 mi NNW 8.1 mph - N/A   Clear
3:55 AM 41.0 °F 35.2 °F 39.2 °F 93% 29.56 in 10.0 mi NW 9.2 mph - N/A   Clear
4:15 AM 41.0 °F 35.2 °F 39.2 °F 93% 29.56 in 10.0 mi NNW 9.2 mph - N/A   Clear
4:35 AM 44.6 °F 39.2 °F 39.2 °F 81% 29.56 in 10.0 mi NNW 10.4 mph - N/A   Clear
4:55 AM 41.0 °F 34.7 °F 39.2 °F 93% 29.56 in 10.0 mi NW 10.4 mph - N/A   Clear
5:35 AM 41.0 °F 37.1 °F 39.2 °F 93% 29.56 in 10.0 mi NNW 5.8 mph - N/A   Clear
5:55 AM 39.2 °F - 37.4 °F 93% 29.56 in 10.0 mi Calm Calm - N/A   Clear
6:15 AM 39.2 °F 37.0 °F 37.4 °F 93% 29.56 in 10.0 mi WNW 3.5 mph - N/A   Clear
6:35 AM 39.2 °F 37.0 °F 37.4 °F 93% 29.56 in 10.0 mi West 3.5 mph - N/A   Clear
7:15 AM 37.4 °F - 37.4 °F 100% 29.54 in 10.0 mi Calm Calm - N/A   Clear
7:35 AM 37.4 °F - 37.4 °F 100% 29.53 in 10.0 mi Calm Calm - N/A   Clear
7:55 AM 33.8 °F 30.8 °F 33.8 °F 100% 29.53 in 10.0 mi WSW 3.5 mph - N/A   Clear
8:15 AM 33.8 °F 30.8 °F 33.8 °F 100% 29.52 in 10.0 mi SW 3.5 mph - N/A   Clear
8:35 AM 32.0 °F - 32.0 °F 100% 29.52 in 7.0 mi Calm Calm - N/A   Clear
8:55 AM 37.4 °F 32.8 °F 37.4 °F 100% 29.51 in 7.0 mi South 5.8 mph - N/A   Clear
9:15 AM 42.8 °F 41.1 °F 41.0 °F 93% 29.50 in 7.0 mi ESE 3.5 mph - N/A   Clear
9:35 AM 41.0 °F - 39.2 °F 93% 29.50 in 10.0 mi Calm Calm - N/A   Clear
9:55 AM 48.2 °F - 42.8 °F 82% 29.50 in 10.0 mi SSW 3.5 mph - N/A   Clear
10:15 AM 53.6 °F - 44.6 °F 72% 29.49 in 10.0 mi SSE 5.8 mph - N/A   Clear
10:35 AM 53.6 °F - 44.6 °F 72% 29.49 in 10.0 mi SSE 6.9 mph - N/A   Clear
10:55 AM 55.4 °F - 44.6 °F 67% 29.48 in 10.0 mi SSE 9.2 mph - N/A   Clear
11:15 AM 57.2 °F - 44.6 °F 63% 29.47 in 10.0 mi South 10.4 mph - N/A   Clear
11:35 AM 57.2 °F - 44.6 °F 63% 29.47 in 10.0 mi South 10.4 mph - N/A   Clear
11:55 AM 57.2 °F - 44.6 °F 63% 29.45 in 10.0 mi South 10.4 mph - N/A   Clear
12:15 PM 57.2 °F - 44.6 °F 63% 29.46 in 10.0 mi SSW 13.8 mph - N/A   Clear
12:35 PM 57.2 °F - 44.6 °F 63% 29.45 in 10.0 mi SSW 12.7 mph - N/A   Clear
12:55 PM 57.2 °F - 44.6 °F 63% 29.44 in 10.0 mi SW 11.5 mph - N/A   Clear
1:15 PM 59.0 °F - 44.6 °F 59% 29.43 in 10.0 mi SSW 9.2 mph - N/A   Clear
1:35 PM 59.0 °F - 44.6 °F 59% 29.41 in 10.0 mi South 9.2 mph - N/A   Clear
1:55 PM 59.0 °F - 44.6 °F 59% 29.40 in 10.0 mi South 10.4 mph - N/A   Clear
2:15 PM 59.0 °F - 44.6 °F 59% 29.39 in 10.0 mi SSW 12.7 mph - N/A   Clear
2:35 PM 60.8 °F - 44.6 °F 55% 29.39 in 10.0 mi SSW 9.2 mph - N/A   Clear
2:55 PM 62.6 °F - 42.8 °F 48% 29.37 in 10.0 mi South 11.5 mph - N/A   Clear
3:15 PM 62.6 °F - 42.8 °F 48% 29.36 in 10.0 mi South 10.4 mph - N/A   Clear
3:35 PM 64.4 °F - 41.0 °F 42% 29.34 in 10.0 mi South 10.4 mph - N/A   Clear
3:55 PM 64.4 °F - 41.0 °F 42% 29.34 in 10.0 mi South 13.8 mph 17.3 mph N/A   Clear
4:15 PM 64.4 °F - 41.0 °F 42% 29.33 in 10.0 mi SSW 13.8 mph - N/A   Partly Cloudy
4:35 PM 62.6 °F - 41.0 °F 45% 29.32 in 10.0 mi SSW 10.4 mph - N/A   Partly Cloudy
4:55 PM 62.6 °F - 41.0 °F 45% 29.32 in 10.0 mi SSW 10.4 mph - N/A   Clear
5:15 PM 60.8 °F - 42.8 °F 52% 29.31 in 10.0 mi South 9.2 mph - N/A   Clear
5:35 PM 60.8 °F - 42.8 °F 52% 29.30 in 10.0 mi South 11.5 mph - N/A   Clear
5:55 PM 59.0 °F - 44.6 °F 59% 29.30 in 10.0 mi South 10.4 mph - N/A   Clear
6:15 PM 59.0 °F - 44.6 °F 59% 29.29 in 10.0 mi South 6.9 mph - N/A   Clear
6:35 PM 57.2 °F - 44.6 °F 63% 29.29 in 10.0 mi SSE 8.1 mph - N/A   Partly Cloudy
6:55 PM 55.4 °F - 44.6 °F 67% 29.28 in 10.0 mi SSE 6.9 mph - N/A   Partly Cloudy
7:15 PM 55.4 °F - 44.6 °F 67% 29.27 in 10.0 mi SSE 9.2 mph - N/A   Partly Cloudy
7:35 PM 55.4 °F - 44.6 °F 67% 29.26 in 10.0 mi SSE 11.5 mph - N/A   Clear
7:55 PM 55.4 °F - 44.6 °F 67% 29.26 in 10.0 mi South 12.7 mph - N/A   Partly Cloudy
8:15 PM 55.4 °F - 44.6 °F 67% 29.26 in 10.0 mi South 10.4 mph - N/A   Mostly Cloudy
8:35 PM 53.6 °F - 44.6 °F 72% 29.25 in 10.0 mi South 6.9 mph - N/A   Overcast
8:55 PM 53.6 °F - 44.6 °F 72% 29.24 in 10.0 mi South 6.9 mph - N/A   Overcast
9:15 PM 55.4 °F - 44.6 °F 67% 29.23 in 10.0 mi South 8.1 mph - N/A   Mostly Cloudy
9:35 PM 55.4 °F - 44.6 °F 67% 29.23 in 10.0 mi South 9.2 mph - N/A   Overcast
9:55 PM 55.4 °F - 44.6 °F 67% 29.23 in 10.0 mi SSW 11.5 mph - N/A   Overcast
10:15 PM 53.6 °F - 46.4 °F 77% 29.23 in 10.0 mi SW 12.7 mph - N/A Rain Light Rain
10:35 PM 53.6 °F - 50.0 °F 88% 29.22 in 10.0 mi WSW 11.5 mph - N/A   Overcast
10:55 PM 51.8 °F - 50.0 °F 94% 29.22 in 10.0 mi SW 9.2 mph - N/A Rain Light Rain
11:15 PM 51.8 °F - 51.8 °F 100% 29.22 in 8.0 mi WSW 10.4 mph - 0.02 in Rain Light Rain
11:35 PM 51.8 °F - 51.8 °F 100% 29.21 in 10.0 mi SW 11.5 mph - 0.03 in Rain Light Rain
11:55 PM 50.0 °F - 50.0 °F 100% 29.20 in 10.0 mi SW 12.7 mph - 0.03 in   Overcast